#timestamp,LO_Frequency,Hit,StdDev 
1551852015.5,286047000.4,N
1551852035.3,286046998.1,N
1551852055.1,286047000.0,N
1551852075.9,286047002.8,N
1551852095.7,286047003.3,N
1551852115.5,286047004.2,N
1551852135.4,286047002.5,N
1551852155.2,286047001.5,N
1551852175.1,286047002.3,N
1551852176.0,286047002.3,N
1551852195.8,286047002.3,N
1551852215.6,286047001.6,N
1551852235.5,286046999.9,N
1551852255.3,286046998.1,N
1551852275.2,286046999.5,N
1551852295.9,286046999.2,N
1551852315.7,286047001.1,N
1551852335.1,286047000.8,N
1551852355.9,286047000.9,N
1551852375.7,286047001.1,N
1551852395.6,286046999.4,N
1551852415.4,286046998.3,N
1551852435.2,286047001.1,N
1551852455.1,286047002.3,N
1551852456.0,286047002.3,N
1551852475.8,286046999.8,N
1551852495.6,286047001.0,N
1551852515.5,286047001.1,N
1551852535.3,286047002.1,N
1551852555.2,286047000.7,N
1551852575.9,286047000.5,N
1551852595.7,286046998.9,N
1551852615.6,286046998.7,N
1551852635.4,286046996.9,N
1551852655.2,286046997.6,N
1551852675.1,286046997.7,N
1551852676.0,286046997.7,N
1551852695.8,286046996.9,N
1551852715.7,286047000.9,N
1551852735.5,286047003.9,N
1551852755.3,286047002.3,N
1551852775.2,286047002.6,N
1551852795.9,286047000.0,N
1551852815.7,286046999.7,N
1551852835.6,286046999.9,N
1551852855.4,286047000.6,N
1551852875.3,286047000.9,N
1551852895.1,286047011.9,Y
1551852896.0,286047000.3,P
1551852915.8,286046998.9,P
1551852935.7,286047000.4,N
1551852955.5,286046998.6,N
1551852975.6,286046999.4,N
1551852995.4,286046998.8,N
1551853015.3,286046999.0,N
1551853035.1,286047000.2,N
1551853055.9,286047000.2,N
1551853075.7,286047000.4,N
1551853095.5,286047001.5,N
1551853115.4,286047002.2,N
1551853135.2,286047003.2,Y
1551853155.0,286047005.5,P
1551853156.0,286047005.5,N
1551853175.8,286047002.9,N
1551853195.6,286047004.8,N
1551853215.5,286047003.0,N
1551853235.3,286047003.4,N
1551853255.1,286047001.3,N
1551853275.9,286047003.8,N
1551853295.7,286047001.4,N
1551853315.5,286047003.8,N
1551853335.4,286047004.8,N
1551853355.2,286047003.1,N
1551853375.1,286047007.5,Y
1551853376.0,286047007.5,P
1551853395.8,286047003.4,N
1551853415.6,286047004.4,N
1551853435.5,286047002.0,N
1551853455.3,286047001.6,N
1551853475.2,286047001.4,N
1551853495.9,286047001.5,N
1551853515.7,286047004.3,N
1551853535.6,286046999.9,N
1551853555.9,286047000.4,N
1551853575.7,286047002.3,N
1551853595.6,286047001.4,N
1551853615.4,286047001.9,N
1551853635.2,286047001.8,N
1551853655.1,286047000.8,N
1551853656.0,286047000.8,N
1551853675.8,286046998.2,N
1551853695.7,286047000.3,N
1551853715.5,286046998.3,N
1551853735.3,286047000.5,N
1551853755.2,286046999.0,N
1551853775.0,286046998.5,N
1551853775.9,286046998.5,N
1551853795.7,286047000.4,N
1551853815.6,286047002.1,N
1551853835.4,286047001.9,N
1551853855.3,286047002.2,N
1551853875.1,286047001.6,N
1551853876.0,286047001.6,N
1551853895.8,286047002.0,N
1551853915.7,286047002.4,N
1551853935.5,286047002.0,N
1551853955.3,286047004.3,N
1551853975.2,286047002.8,N
1551853995.0,286047002.7,N
1551853995.9,286047002.7,N
1551854015.8,286047002.7,N
1551854035.6,286047002.4,N
1551854055.5,286047002.5,N
1551854075.3,286047002.1,N
1551854095.1,286047000.2,N
1551854115.9,286046998.1,N
1551854135.7,286046998.1,N
1551854155.6,286046998.4,N
1551854175.4,286046998.4,N
1551854195.2,286047000.4,N
1551854215.1,286047000.0,N
1551854216.0,286047000.0,N
1551854235.8,286047001.0,N
1551854255.6,286046999.1,N
1551854275.5,286046996.5,N
1551854295.3,286046998.8,N
1551854315.2,286047000.8,N
1551854335.9,286046998.7,N
1551854355.7,286046999.2,N
1551854375.6,286046997.4,N
1551854395.4,286046999.1,N
1551854415.3,286046999.3,N
1551854435.1,286046996.8,N
1551854436.0,286046996.8,N
1551854455.8,286046997.6,N
1551854475.7,286046993.4,Y
1551854495.5,286046995.4,P
1551854515.4,286046995.0,N
1551854535.2,286046994.9,N
1551854555.0,286046999.3,N
1551854555.9,286046999.3,N
1551854575.8,286046997.4,N
1551854595.6,286046997.9,N
1551854615.5,286046995.5,N
1551854635.3,286046997.9,N
1551854655.1,286046995.3,N
1551854675.9,286046997.5,N
1551854695.7,286046995.0,N
1551854715.5,286046999.2,N
1551854735.4,286046996.9,N
1551854755.2,286046999.4,N
1551854775.1,286046996.6,N
1551854776.0,286046996.6,N
1551854795.8,286046998.8,N
1551854815.6,286046996.8,N
1551854835.5,286046995.3,N
1551854855.3,286046996.2,N
1551854875.1,286046993.9,Y
1551854895.9,286046997.7,P
1551854915.7,286046997.4,P
1551854935.6,286046997.2,P
1551854955.4,286046997.2,Y
1551854975.2,286046998.5,P
1551854995.1,286047001.2,N
1551854996.0,286047001.2,N
1551855015.8,286047001.1,N
1551855035.7,286046999.6,N
1551855055.5,286046996.5,N
1551855075.3,286046996.7,N
1551855095.2,286046997.4,N
1551855115.0,286046997.4,N
1551855115.9,286046997.4,N
1551855135.7,286046997.6,N
1551855155.6,286046997.9,N
1551855175.4,286046997.1,N
1551855195.3,286046997.2,N
1551855215.1,286046998.3,N
1551855216.0,286046998.3,N
1551855235.8,286046997.0,N
1551855255.7,286046997.0,N
1551855275.5,286046997.7,N
1551855295.3,286046995.1,Y
1551855315.2,286046999.1,P
1551855335.0,286046997.2,P
1551855335.9,286046997.2,P
1551855355.8,286046996.7,Y
1551855375.6,286046998.5,P
1551855395.4,286046998.3,P
1551855415.3,286047001.1,P
1551855435.1,286047001.2,N
1551855455.9,286047000.3,N
1551855475.7,286047000.6,N
1551855495.5,286046998.9,N
1551855515.4,286047000.7,N
1551855535.2,286046998.7,N
1551855555.0,286046999.6,N
1551855555.9,286046999.6,N
1551855575.8,286046999.3,N
1551855595.6,286046995.1,Y
